GW3562 Weather Reports


time (UTC)temp
C
wind
direction
speed
KPH
gust
KPH
rain 1hr
cm
rain 24hr
cm
rain mn
cm
humidity
%
barometer
mb
20260506222205 6 338 0.0 1.6 0.03 2.34 2.13 96 1010.8
20260506221734 6 337 0.0 0.0 0.03 2.34 2.13 96 1010.7
20260506221211 6 337 0.0 4.8 0.03 2.34 2.13 96 1011.0
20260506220709 6 337 0.0 4.8 0.03 2.34 2.13 96 1011.0
20260506215659 6 349 0.0 6.4 0.03 2.31 2.11 96 1010.8
20260506215220 6 334 0.0 4.8 0.03 2.31 2.11 96 1010.8
20260506214706 6 333 0.0 4.8 0.05 2.31 2.11 96 1010.8
20260506214216 6 341 0.0 0.0 0.08 2.31 2.11 96 1010.7
20260506213722 6 341 0.0 3.2 0.08 2.31 2.11 96 1010.7
20260506212715 6 342 0.0 3.2 0.10 2.31 2.11 96 1010.6
20260506212214 7 357 0.0 0.0 0.10 2.31 2.11 96 1010.5
20260506211714 7 357 0.0 0.0 0.13 2.31 2.11 96 1010.4
20260506211157 7 14 0.0 3.2 0.13 2.31 2.11 96 1010.3
20260506210702 6 13 0.0 3.2 0.13 2.31 2.11 96 1010.3
20260506205757 6 14 0.0 6.4 0.10 2.41 2.08 96 1010.4
20260506205217 6 337 0.0 0.0 0.10 2.41 2.08 96 1010.6
20260506204722 7 336 0.0 0.0 0.08 2.39 2.06 96 1010.6
20260506204228 7 336 0.0 0.0 0.05 2.36 2.03 96 1010.6
20260506203712 7 335 0.0 0.0 0.05 2.36 2.03 96 1010.6
20260506202729 7 289 0.0 0.0 0.05 2.34 2.01 96 1010.5
20260506202226 7 350 0.0 0.0 0.05 2.34 2.01 96 1010.5
20260506201707 7 350 0.0 0.0 0.03 2.31 1.98 96 1010.5
20260506201154 7 350 0.0 0.0 0.05 2.31 1.98 96 1010.5
20260506200736 7 350 0.0 0.0 0.05 2.31 1.98 96 1010.5
20260506195733 7 350 0.0 0.0 0.08 2.51 1.98 96 1010.3
20260506195159 7 350 0.0 0.0 0.08 2.51 1.98 96 1010.2
20260506194700 7 350 0.0 0.0 0.08 2.51 1.98 96 1010.2
20260506194200 7 350 0.0 0.0 0.08 2.51 1.98 96 1010.3
20260506193705 6 350 0.0 0.0 0.08 2.51 1.98 96 1010.3
20260506192706 6 350 0.0 0.0 0.08 2.49 1.96 96 1010.2
20260506192233 6 350 0.0 0.0 0.08 2.49 1.96 96 1010.1
20260506191707 6 349 0.0 0.0 0.08 2.49 1.96 96 1010.1
20260506191159 6 349 0.0 0.0 0.05 2.46 1.93 96 1010.1
20260506190709 6 347 0.0 0.0 0.05 2.46 1.93 96 1010.1
20260506185725 6 347 0.0 0.0 0.05 2.54 1.91 96 1010.3
20260506185213 6 347 0.0 0.0 0.05 2.54 1.91 96 1010.4
20260506184707 6 347 0.0 0.0 0.05 2.54 1.91 96 1010.5
20260506184226 6 347 0.0 0.0 0.08 2.54 1.91 96 1010.5
20260506183654 6 344 0.0 0.0 0.10 2.54 1.91 96 1010.5
20260506182717 6 343 0.0 0.0 0.10 2.51 1.88 96 1010.7
20260506182251 6 343 0.0 0.0 0.13 2.51 1.88 96 1010.7
20260506181721 6 342 0.0 0.0 0.13 2.51 1.88 96 1010.6
20260506181205 6 338 0.0 0.0 0.15 2.51 1.88 96 1010.9
20260506180725 6 338 0.0 0.0 0.15 2.51 1.88 96 1010.9
20260506175735 6 338 0.0 0.0 0.15 2.49 1.85 96 1011.0
20260506175218 6 338 0.0 0.0 0.15 2.49 1.85 96 1011.1
20260506174705 6 339 0.0 0.0 0.15 2.49 1.85 96 1011.1
20260506174158 6 339 0.0 0.0 0.15 2.46 1.83 96 1011.2
20260506173727 6 339 0.0 0.0 0.15 2.44 1.80 96 1011.1
20260506172708 6 338 0.0 0.0 0.15 2.41 1.78 96 1011.2
20260506172154 6 338 0.0 0.0 0.15 2.39 1.75 96 1011.1
20260506171754 6 337 0.0 0.0 0.18 2.39 1.75 96 1011.3
20260506171203 6 337 0.0 8.0 0.15 2.36 1.73 96 1011.2
20260506170705 6 330 0.0 8.0 0.18 2.36 1.73 96 1011.1
20260506165653 6 346 0.0 0.0 0.18 2.34 1.70 96 1011.2
20260506165236 6 346 0.0 0.0 0.20 2.34 1.70 96 1011.3
20260506164706 6 346 0.0 0.0 0.23 2.34 1.70 96 1011.3
20260506164224 6 346 0.0 0.0 0.23 2.31 1.68 96 1011.3
20260506163713 6 346 0.0 4.8 0.23 2.29 1.65 96 1011.3
20260506162733 6 344 0.0 3.2 0.23 2.26 1.63 96 1011.4
20260506162201 6 344 0.0 3.2 0.23 2.24 1.60 96 1011.4
20260506161751 6 344 0.0 0.0 0.20 2.21 1.57 96 1011.6
20260506161200 6 344 0.0 0.0 0.23 2.21 1.57 96 1011.6
20260506160702 6 344 0.0 0.0 0.20 2.18 1.55 96 1011.7
20260506155655 6 343 0.0 4.8 0.20 2.13 1.50 96 1011.7
20260506155212 6 343 0.0 4.8 0.20 2.13 1.50 96 1011.8
20260506154725 6 356 0.0 0.0 0.20 2.11 1.47 96 1012.0
20260506154231 6 358 0.0 0.0 0.20 2.08 1.45 96 1011.9
20260506153649 6 13 0.0 0.0 0.18 2.06 1.42 96 1011.8
20260506152718 6 17 1.6 11.3 0.18 2.03 1.40 96 1011.9
20260506151744 6 356 1.6 8.0 0.18 2.01 1.37 96 1011.6
20260506151207 6 351 0.0 4.8 0.18 1.98 1.35 96 1011.6
20260506150710 6 356 0.0 1.6 0.18 1.98 1.35 96 1011.6
20260506145721 6 357 0.0 0.0 0.15 1.93 1.30 96 1011.4
20260506145208 6 357 0.0 1.6 0.18 1.93 1.30 96 1011.4
20260506144735 6 357 0.0 3.2 0.15 1.91 1.27 96 1011.4
20260506144210 6 357 0.0 4.8 0.15 1.88 1.24 96 1011.4
20260506143659 6 356 0.0 4.8 0.15 1.88 1.24 96 1011.4
20260506142719 6 351 0.0 0.0 0.15 1.85 1.22 96 1011.5
20260506142204 6 350 0.0 0.0 0.13 1.83 1.19 96 1011.6
20260506141700 6 350 0.0 9.7 0.13 1.83 1.19 96 1011.7
20260506141544 6 350 0.0 9.7 0.13 1.83 1.19 96 1011.4
20260506141118 6 350 0.0 9.7 0.10 1.80 1.17 96 1011.8
20260506140621 6 351 0.0 1.6 0.10 1.80 1.17 96 1011.6
20260506140124 6 351 0.0 9.7 0.10 1.78 1.14 96 1011.5
20260506140033 6 351 0.0 9.7 0.10 1.78 1.14 96 1011.2
20260506135643 6 351 0.0 9.7 0.08 1.75 1.12 96 1011.7
20260506135118 6 357 0.0 4.8 0.08 1.75 1.12 96 1011.6
20260506134615 6 358 0.0 4.8 0.10 1.75 1.12 96 1011.4
20260506134547 6 358 0.0 4.8 0.10 1.75 1.12 96 1011.1
20260506134119 6 357 0.0 0.0 0.10 1.73 1.09 96 1011.3
20260506133634 7 351 0.0 0.0 0.15 1.73 1.09 96 1011.4
20260506133133 7 344 0.0 0.0 0.18 1.70 1.07 96 1011.5
20260506133038 7 344 0.0 0.0 0.18 1.70 1.07 96 1011.2
20260506132651 7 344 0.0 0.0 0.18 1.70 1.07 96 1011.6
20260506132119 7 344 0.0 6.4 0.18 1.70 1.07 96 1011.6
20260506131626 7 344 0.0 6.4 0.20 1.70 1.07 96 1011.7
20260506131533 7 344 0.0 6.4 0.20 1.70 1.07 96 1011.2
20260506131122 7 53 0.0 0.0 0.23 1.70 1.07 96 1011.8
20260506130636 7 296 0.0 6.4 0.23 1.70 1.07 96 1011.9
20260506130125 7 349 0.0 0.0 0.23 1.68 1.04 96 1012.1
20260506130101 7 352 0.0 0.0 0.23 1.68 1.04 96 1011.7
20260506125623 7 351 0.0 0.0 0.23 1.70 1.04 96 1012.1
20260506125120 7 351 0.0 0.0 0.25 1.70 1.04 96 1012.1
20260506124637 7 353 0.0 8.0 0.23 1.68 1.02 96 1012.0
20260506124503 7 337 0.0 8.0 0.23 1.68 1.02 96 1011.5
20260506124137 7 337 0.0 8.0 0.20 1.65 0.99 96 1012.3
20260506123622 7 156 0.0 4.8 0.18 1.60 0.94 96 1012.5
20260506123115 7 125 0.0 4.8 0.15 1.55 0.89 96 1011.3
20260506123018 7 124 0.0 4.8 0.15 1.55 0.89 96 1011.5
20260506122615 7 336 0.0 0.0 0.15 1.55 0.89 96 1011.9
20260506122127 7 336 0.0 0.0 0.15 1.52 0.86 96 1012.3
20260506121630 7 336 0.0 0.0 0.15 1.52 0.86 96 1012.3
20260506121555 7 336 0.0 0.0 0.15 1.52 0.86 96 1011.9
20260506121126 7 336 0.0 0.0 0.15 1.50 0.84 96 1012.5
20260506120639 7 335 0.0 0.0 0.15 1.50 0.84 96 1012.5
20260506120119 7 335 0.0 0.0 0.13 1.47 0.81 96 1012.3
20260506120055 7 335 0.0 0.0 0.13 1.45 0.81 96 1011.9
20260506115625 7 335 0.0 0.0 0.13 1.47 0.81 95 1012.5
20260506115131 7 335 0.0 0.0 0.13 1.45 0.79 95 1012.6
20260506114628 7 335 0.0 0.0 0.13 1.45 0.79 95 1012.6
20260506114532 7 335 0.0 0.0 0.13 1.42 0.79 95 1012.1
20260506114126 7 335 0.0 3.2 0.13 1.45 0.79 95 1012.5
20260506113620 7 334 0.0 4.8 0.10 1.42 0.76 95 1012.6
20260506113116 7 328 0.0 4.8 0.08 1.40 0.74 95 1012.8
20260506113044 7 328 0.0 4.8 0.08 1.40 0.71 95 1012.4
20260506112643 7 347 0.0 1.6 0.08 1.40 0.74 95 1012.7
20260506112145 7 349 0.0 3.2 0.05 1.37 0.71 95 1012.6
20260506111621 8 360 0.0 0.0 0.05 1.37 0.71 95 1012.3
20260506111525 7 360 0.0 0.0 0.05 1.37 0.71 95 1011.9
20260506111119 8 360 0.0 1.6 0.03 1.35 0.69 95 1012.0
20260506110625 8 8 0.0 1.6 0.03 1.35 0.69 95 1011.9
20260506110131 8 12 0.0 0.0 0.03 1.35 0.69 95 1011.9
20260506110040 8 12 0.0 0.0 0.03 1.35 0.69 95 1011.4
20260506105627 8 14 0.0 0.0 0.03 1.35 0.69 96 1011.8
20260506105115 8 339 0.0 0.0 0.00 1.32 0.66 95 1011.9
20260506104630 8 339 0.0 4.8 0.05 1.32 0.66 95 1012.0
20260506104540 8 339 0.0 4.8 0.08 1.32 0.66 95 1011.5
20260506104133 8 344 0.0 3.2 0.13 1.32 0.66 95 1011.9
20260506103631 8 344 0.0 0.0 0.13 1.32 0.66 95 1011.9
20260506103028 8 344 0.0 0.0 0.13 1.32 0.66 95 1011.5
20260506102635 8 344 0.0 0.0 0.13 1.32 0.66 95 1012.0
20260506102126 8 344 0.0 0.0 0.13 1.32 0.66 96 1011.6
20260506101626 8 344 0.0 0.0 0.15 1.32 0.66 95 1011.9
20260506101547 8 344 0.0 0.0 0.15 1.32 0.66 95 1011.4
20260506101117 8 344 0.0 0.0 0.15 1.32 0.66 95 1011.8
20260506100629 8 344 0.0 0.0 0.15 1.32 0.66 95 1011.9
20260506100126 8 344 0.0 0.0 0.15 1.32 0.66 95 1012.1
20260506100041 8 344 0.0 0.0 0.15 1.32 0.66 95 1011.5
20260506095625 8 344 0.0 0.0 0.15 1.32 0.66 95 1012.2
20260506095127 8 344 0.0 0.0 0.15 1.32 0.66 96 1011.9
20260506094651 9 344 0.0 4.8 0.15 1.27 0.61 96 1012.3
20260506094559 8 344 0.0 4.8 0.15 1.27 0.61 96 1011.8
20260506093642 9 53 0.0 0.0 0.08 1.19 0.53 96 1012.2
20260506093118 9 53 0.0 0.0 0.08 1.19 0.53 95 1012.0
20260506093052 8 53 0.0 0.0 0.08 1.19 0.53 95 1011.4
20260506092635 9 74 0.0 0.0 0.08 1.19 0.53 95 1012.2
20260506092119 9 74 0.0 4.8 0.15 1.19 0.53 96 1012.4
20260506091658 9 74 0.0 4.8 0.13 1.17 0.51 96 1012.1
20260506091120 9 337 0.0 3.2 0.13 1.17 0.51 96 1012.8
20260506090138 9 340 0.0 0.0 0.13 1.17 0.51 95 1012.2
20260506090103 9 340 0.0 0.0 0.13 1.17 0.51 95 1011.6
20260506085621 10 340 0.0 0.0 0.13 1.17 0.51 95 1012.1
20260506085113 10 340 0.0 0.0 0.15 1.17 0.51 95 1012.4
20260506084636 10 340 0.0 0.0 0.15 1.12 0.46 96 1012.5
20260506084507 9 340 0.0 0.0 0.15 1.12 0.46 96 1011.8
20260506084116 10 340 0.0 0.0 0.15 1.12 0.46 96 1012.4
20260506083613 10 340 0.0 3.2 0.15 1.12 0.46 95 1012.5
20260506083121 10 340 0.0 3.2 0.15 1.12 0.46 95 1012.3
20260506083042 10 340 0.0 3.2 0.15 1.12 0.46 95 1011.7
20260506082638 10 340 0.0 0.0 0.13 1.09 0.43 96 1012.2
20260506082124 10 340 0.0 0.0 0.08 1.04 0.38 96 1012.9
20260506081509 10 339 0.0 0.0 0.08 1.04 0.38 95 1011.8
20260506081118 10 339 0.0 0.0 0.08 1.04 0.38 95 1012.4
20260506080658 10 339 0.0 0.0 0.08 1.04 0.38 95 1012.6
20260506080114 10 339 0.0 0.0 0.08 1.04 0.38 95 1012.4
20260506073121 11 337 0.0 0.0 0.00 0.97 0.30 96 1012.0
20260506073029 10 337 0.0 0.0 0.00 0.97 0.30 96 1011.5
20260506072627 11 337 0.0 0.0 0.00 0.97 0.30 96 1012.2
20260506072116 11 337 0.0 0.0 0.00 0.97 0.30 96 1012.3
20260506071633 11 337 0.0 0.0 0.00 0.97 0.30 96 1011.4
20260506071631 11 337 0.0 0.0 0.00 0.97 0.30 96 1012.0
20260506071142 11 337 0.0 0.0 0.00 0.97 0.30 96 1011.9
20260506070631 11 337 0.0 0.0 0.00 0.97 0.30 96 1011.9
20260506070127 11 337 0.0 0.0 0.00 0.97 0.30 96 1012.0
20260506062141 11 337 0.0 0.0 0.03 0.97 0.30 96 1012.1
20260506061626 11 339 0.0 0.0 0.03 0.97 0.30 96 1012.0
20260506061512 11 339 0.0 0.0 0.03 0.97 0.30 96 1011.3
20260506061154 11 339 0.0 0.0 0.03 0.97 0.30 96 1012.2
20260506060619 11 339 0.0 0.0 0.05 0.97 0.30 96 1012.1
20260506060120 11 339 0.0 0.0 0.10 0.97 0.30 96 1012.2
20260506051111 11 339 0.0 0.0 0.23 0.94 0.28 95 1012.1
20260506050632 11 339 0.0 0.0 0.25 0.91 0.25 95 1012.5
20260506050133 11 339 0.0 0.0 0.20 0.86 0.20 95 1012.3
20260506045131 11 339 0.0 0.0 0.13 0.79 0.13 95 1012.2
20260506044635 11 339 0.0 0.0 0.13 0.76 0.10 95 1012.0
20260506044535 11 339 0.0 0.0 0.13 0.76 0.10 95 1011.3
20260506044148 11 339 0.0 0.0 0.13 0.76 0.10 95 1011.7
20260506043620 11 339 0.0 0.0 0.15 0.76 0.10 95 1011.8
20260506043123 11 339 0.0 0.0 0.15 0.76 0.10 94 1011.7
20260506043044 11 339 0.0 0.0 0.15 0.76 0.10 94 1010.9
20260506042629 11 338 0.0 0.0 0.15 0.74 0.08 94 1011.7
20260506042149 12 338 0.0 0.0 0.15 0.71 0.05 94 1011.9
20260506041652 12 339 0.0 0.0 0.18 0.71 0.05 94 1011.6
20260506041532 11 339 0.0 0.0 0.18 0.71 0.05 94 1011.0
20260506041129 12 339 0.0 0.0 0.20 0.71 0.05 94 1012.1
20260506040621 12 339 0.0 0.0 0.18 0.66 0.00 94 1012.0
20260506040124 12 339 0.0 0.0 0.18 0.66 0.00 93 1012.1
20260506040042 11 339 0.0 0.0 0.20 0.66 0.00 93 1011.5
20260506035630 12 339 0.0 0.0 0.20 0.66 0.66 93 1012.0
20260506035124 12 339 0.0 0.0 0.20 0.66 0.66 93 1012.0
20260506034630 12 339 0.0 0.0 0.18 0.64 0.64 93 1012.0
20260506034604 12 339 0.0 0.0 0.18 0.64 0.64 93 1011.3
20260506034116 12 339 0.0 0.0 0.18 0.64 0.64 92 1012.1
20260506033626 12 339 0.0 0.0 0.15 0.61 0.61 92 1012.0
20260506033142 12 339 0.0 0.0 0.13 0.58 0.58 91 1011.6
20260506033006 12 339 0.0 0.0 0.13 0.58 0.58 91 1011.0
20260506032130 13 339 0.0 0.0 0.10 0.56 0.56 89 1011.8
20260506031613 13 339 0.0 0.0 0.08 0.53 0.53 88 1011.5
20260506031512 13 339 0.0 3.2 0.08 0.53 0.53 87 1010.8
20260506031138 13 339 0.0 3.2 0.05 0.51 0.51 85 1011.5
20260506030630 13 338 0.0 0.0 0.03 0.48 0.48 83 1011.4
20260506030130 14 338 0.0 1.6 0.00 0.46 0.46 82 1011.1
20260506030025 13 338 0.0 9.7 0.00 0.46 0.46 82 1010.5
20260506025632 14 338 0.0 14.5 0.00 0.46 0.46 80 1011.2
20260506025128 15 339 6.4 14.5 0.00 0.46 0.46 78 1010.9
20260506024623 15 302 0.0 11.3 0.00 0.46 0.46 78 1010.8
20260506024533 15 343 0.0 11.3 0.00 0.46 0.46 77 1010.2
20260506024121 15 349 4.8 12.9 0.00 0.46 0.46 77 1011.0
20260506023131 16 358 3.2 19.3 0.00 0.46 0.46 83 1010.7
20260506023032 15 341 0.0 19.3 0.00 0.46 0.46 84 1010.0
20260506022625 16 351 6.4 19.3 0.00 0.46 0.46 83 1010.6
20260506022124 15 345 1.6 8.0 0.00 0.46 0.46 83 1010.5
20260506021617 15 275 0.0 0.0 0.00 0.46 0.46 84 1010.1
20260506021547 15 275 0.0 0.0 0.00 0.46 0.46 83 1009.4
20260506021138 15 273 0.0 0.0 0.00 0.46 0.46 83 1009.9
20260506020638 15 273 0.0 0.0 0.00 0.46 0.46 84 1010.0
20260506020142 15 273 0.0 0.0 0.00 0.46 0.46 84 1010.0
20260506020042 15 273 0.0 0.0 0.00 0.46 0.46 85 1009.3
20260506015640 15 273 0.0 0.0 0.00 0.46 0.46 84 1009.9
20260506015135 15 274 0.0 0.0 0.00 0.46 0.46 85 1010.1
20260506014653 15 274 0.0 0.0 0.00 0.46 0.46 85 1010.2
20260506014551 15 274 0.0 0.0 0.00 0.46 0.46 85 1009.6
20260506014157 15 274 0.0 0.0 0.00 0.46 0.46 84 1010.2
20260506013647 16 274 0.0 0.0 0.00 0.46 0.46 84 1010.1
20260506013151 16 274 0.0 0.0 0.00 0.46 0.46 83 1010.0
20260506013101 15 274 0.0 0.0 0.00 0.46 0.46 83 1009.3
20260506012644 16 274 0.0 0.0 0.00 0.46 0.46 83 1009.9
20260506012204 16 274 0.0 0.0 0.00 0.46 0.46 82 1009.6
20260506011705 16 274 0.0 0.0 0.00 0.46 0.46 80 1009.4
20260506011518 16 274 0.0 0.0 0.00 0.46 0.46 80 1008.6
20260506011135 16 274 0.0 0.0 0.00 0.46 0.46 80 1009.2
20260506010640 16 274 0.0 0.0 0.00 0.46 0.46 79 1008.9
20260506010156 16 274 0.0 0.0 0.00 0.46 0.46 79 1009.0
20260506005650 16 273 0.0 8.0 0.00 0.46 0.46 79 1009.1
20260506005148 16 273 0.0 8.0 0.00 0.46 0.46 78 1009.1
20260506004639 17 277 0.0 0.0 0.00 0.46 0.46 79 1008.9
20260506004557 16 277 0.0 0.0 0.00 0.46 0.46 79 1008.3
20260506004200 17 277 0.0 4.8 0.00 0.46 0.46 78 1009.0
20260506003651 16 276 0.0 6.4 0.00 0.46 0.46 78 1008.9
20260506003135 16 261 0.0 0.0 0.00 0.46 0.46 79 1009.0
20260506003052 16 259 0.0 0.0 0.00 0.46 0.46 79 1008.3
20260506002639 16 259 0.0 0.0 0.00 0.46 0.46 79 1008.9
20260506002138 16 256 0.0 0.0 0.00 0.46 0.46 81 1008.7
20260506001656 16 255 0.0 0.0 0.00 0.46 0.46 79 1008.8
20260506001505 16 255 0.0 0.0 0.00 0.46 0.46 79 1008.1
20260506001223 16 254 0.0 0.0 0.00 0.46 0.46 79 1008.7
20260506000710 16 242 0.0 0.0 0.00 0.46 0.46 80 1008.6
20260506000226 16 242 0.0 0.0 0.00 0.46 0.46 80 1008.5
20260506000037 16 242 0.0 0.0 0.00 0.46 0.46 80 1007.8
20260505235700 16 242 0.0 0.0 0.00 0.46 0.46 81 1008.5
20260505235201 16 242 0.0 0.0 0.00 0.46 0.46 81 1008.5
20260505234607 16 241 0.0 0.0 0.00 0.46 0.46 81 1007.8
20260505234214 16 278 0.0 0.0 0.00 0.46 0.46 80 1008.6
20260505233723 17 278 0.0 4.8 0.00 0.46 0.46 81 1008.6
20260505233221 17 279 0.0 4.8 0.00 0.46 0.46 80 1008.5
20260505233019 16 279 0.0 4.8 0.00 0.46 0.46 80 1007.8
20260505232649 17 290 0.0 3.2 0.00 0.46 0.46 80 1008.6
20260505232156 17 280 0.0 1.6 0.00 0.46 0.46 80 1008.6
20260505231714 17 286 0.0 0.0 0.00 0.46 0.46 80 1008.3
20260505231534 17 294 0.0 0.0 0.00 0.46 0.46 80 1007.6
20260505231211 17 292 0.0 6.4 0.00 0.46 0.46 79 1008.1
20260505230711 17 287 0.0 6.4 0.00 0.46 0.46 80 1008.1
20260505230206 17 227 0.0 6.4 0.00 0.46 0.46 81 1008.0
20260505230031 17 227 0.0 6.4 0.00 0.46 0.46 81 1007.2
20260505225654 17 226 0.0 6.4 0.00 0.46 0.46 80 1007.9
20260505225222 17 153 0.0 3.2 0.00 0.46 0.46 81 1008.0
20260505224656 17 35 0.0 3.2 0.00 0.46 0.46 84 1008.0
20260505224528 16 35 0.0 3.2 0.00 0.46 0.46 84 1007.2
20260505224207 16 329 0.0 1.6 0.00 0.46 0.46 84 1008.0
20260505223718 16 51 0.0 0.0 0.00 0.46 0.46 85 1007.8
20260505223200 16 52 0.0 0.0 0.00 0.46 0.46 85 1007.9
20260505223033 16 52 0.0 0.0 0.00 0.46 0.46 85 1007.1
20260505222741 16 130 0.0 0.0 0.00 0.46 0.46 84 1008.1